1497632400.5,54645,18.25,73626.3,2.71,0.29,0.55,0,*74
1497632401.69,54646,18.25,73622.5,2.71,0.21,0.43,0,*78
1497632402.93,54647,18.25,73622.8,2.69,0.63,0.67,0,*70
1497632404.14,54648,18.25,73634.0,2.69,0.75,0.97,0,*77
1497632405.37,54649,18.25,73626.3,2.69,1.01,1.25,0,*7C
1497632406.63,54650,18.25,73630.3,2.69,1.25,1.51,0,*71
1497632407.83,54651,18.25,73626.0,2.71,1.41,1.63,0,*7A
1497632409.05,54652,18.25,73622.0,2.71,1.63,1.63,0,*79
1497632410.31,54653,18.25,73626.8,2.73,1.63,1.67,0,*7E
1497632411.57,54654,18.25,73628.0,2.73,1.63,1.63,0,*7D
1497632412.8,54655,18.25,73624.5,2.73,1.41,1.33,0,*79
1497632414.07,54656,18.25,73628.3,2.73,1.21,1.21,0,*7F
1497632415.33,54657,18.25,73624.5,2.73,0.95,0.91,0,*7A
1497632416.54,54658,18.25,73618.0,2.73,0.43,0.41,0,*73
1497632417.75,54659,18.25,73614.8,2.71,0.33,0.29,0,*79
1497632418.92,54660,18.25,73606.0,2.71,0.05,0.05,0,*78
1497632420.11,54661,18.25,73616.0,2.71,-0.03,0.41,0,*62
1497632421.35,54662,18.25,73610.0,2.73,0.59,0.95,0,*78
1497632422.55,54663,18.25,73624.5,2.71,0.71,1.01,0,*4D
1497632423.75,54664,18.25,73618.8,2.69,1.01,1.01,0,*75
1497632425.0,54665,18.25,73616.5,2.69,0.79,0.91,0,*72
1497632426.22,54666,18.25,73588.8,2.71,0.71,0.59,0,*74
1497632427.45,54667,18.25,73594.8,2.71,0.83,0.83,0,*7F
1497632428.71,54668,18.25,73602.8,2.69,1.13,1.09,0,*72
1497632429.95,54669,18.25,73606.0,2.69,0.75,0.75,0,*78
1497632431.21,54670,18.25,73604.3,2.69,1.17,1.29,0,*7D
1497632432.47,54671,18.25,73620.0,2.69,0.79,0.91,0,*77
1497632433.66,54672,18.25,73610.8,2.69,0.43,0.43,0,*72
1497632434.9,54673,18.25,73614.3,2.67,0.41,0.37,0,*7C
1497632436.06,54674,18.25,73620.0,2.65,-0.03,0.01,0,*57
1497632437.29,54675,18.25,73616.8,2.65,-0.27,-0.27,0,*79
1497632438.51,54676,18.25,73614.0,2.63,-0.27,-0.29,0,*72
1497632439.72,54677,18.25,73618.5,2.65,-0.97,-0.65,0,*76
1497632440.95,54678,18.25,73608.0,2.63,-1.51,-1.05,0,*73
1497632442.14,54679,18.25,73610.3,2.61,-1.17,-0.81,0,*4F
1497632443.35,54680,18.25,73602.3,2.59,-0.73,-0.33,0,*78
1497632444.56,54681,18.25,73624.8,2.59,-0.69,-0.45,0,*73
1497632445.74,54682,18.25,73620.8,2.53,-0.57,-0.49,0,*7B
1497632446.95,54683,18.25,73622.3,2.53,0.13,0.13,0,*75
1497632448.13,54684,18.25,73636.0,2.53,-0.11,0.01,0,*6E
1497632449.32,54685,18.25,73636.3,2.53,-0.15,0.13,0,*58
1497632450.51,54686,18.25,73640.5,2.53,0.09,0.29,0,*42
1497632451.73,54687,18.25,73646.5,2.53,0.47,0.51,0,*76
1497632452.95,54688,18.25,73648.0,2.53,0.47,0.51,0,*79
1497632454.17,54689,18.25,73650.8,2.53,0.47,0.59,0,*70
1497632455.38,54690,18.25,73640.3,2.53,0.41,0.37,0,*76
1497632456.62,54691,18.25,73648.5,2.51,0.33,0.33,0,*74
1497632457.85,54692,18.25,73656.8,2.51,0.37,0.37,0,*77
1497632459.09,54693,18.25,73662.3,2.51,0.59,0.55,0,*7A
1497632460.34,54694,18.25,73662.5,2.51,0.55,0.59,0,*7D
1497632461.55,54695,18.25,73636.5,2.49,0.33,0.33,0,*79
1497632462.77,54696,18.25,73646.3,2.51,0.21,0.09,0,*49
1497632463.99,54697,18.25,73640.8,2.49,0.47,0.59,0,*74
1497632465.21,54698,18.25,73630.8,2.49,0.91,0.95,0,*70
1497632466.44,54699,18.25,73636.8,2.49,1.17,1.21,0,*70
1497632467.65,54700,18.25,73630.5,2.49,1.41,1.33,0,*71
1497632468.87,54701,18.25,73622.0,2.49,1.43,1.51,0,*76
1497632470.11,54702,18.25,73620.3,2.49,1.29,1.33,0,*7D
1497632471.37,54703,18.25,73612.3,2.51,1.21,1.21,0,*7E
1497632472.58,54704,18.25,73592.3,2.49,1.33,1.41,0,*75
1497632473.82,54705,18.25,73610.8,2.53,1.13,1.09,0,*71
1497632475.05,54706,18.25,73616.5,2.53,1.09,1.13,0,*72
1497632476.31,54707,18.25,73608.3,2.51,1.09,1.09,0,*7A
1497632477.56,54708,18.25,73606.8,2.51,0.91,0.83,0,*76
1497632478.8,54709,18.25,73618.8,2.51,0.33,0.21,0,*77
1497632480.04,54710,18.25,73620.5,2.51,0.25,0.25,0,*7C
1497632481.25,54711,18.25,73622.8,2.51,0.43,0.47,0,*79
1497632482.46,54712,18.25,73606.0,2.51,0.47,0.43,0,*7A
1497632483.65,54713,18.25,73600.3,2.49,0.33,0.43,0,*71
1497632484.88,54714,18.25,73592.3,2.49,0.55,0.55,0,*71
1497632486.07,54715,18.25,73586.0,2.49,0.43,0.47,0,*74
1497632487.29,54716,18.25,73588.0,2.49,0.83,0.91,0,*70
1497632488.47,54717,18.25,73612.5,2.49,1.05,1.05,0,*72
1497632489.72,54718,18.25,73614.5,2.47,1.47,1.51,0,*74
1497632490.96,54719,18.25,73608.3,2.47,1.51,1.71,0,*70
1497632492.17,54720,18.25,73618.3,2.49,1.71,1.75,0,*72
1497632493.35,54721,18.25,73616.8,2.49,1.75,1.79,0,*7B
1497632494.53,54722,18.25,73622.8,2.49,1.75,1.79,0,*78
1497632495.76,54723,18.25,73632.3,2.51,1.75,1.67,0,*7F
1497632497.01,54724,18.25,73638.5,2.51,1.55,1.55,0,*7B
1497632498.26,54725,18.25,73642.0,2.51,1.51,1.55,0,*7E
1497632499.49,54726,18.25,73626.5,2.49,1.55,1.55,0,*70
1497632500.72,54727,18.25,73626.0,2.49,1.63,1.55,0,*74
1497632501.97,54728,18.25,73618.8,2.51,1.55,1.55,0,*77
1497632503.2,54729,18.25,73620.3,2.53,1.55,1.67,0,*75
1497632504.43,54730,18.25,73616.5,2.53,1.71,1.71,0,*7C
1497632505.61,54731,18.25,73624.3,2.53,1.79,1.79,0,*7D
1497632506.83,54732,18.25,73622.5,2.53,1.71,1.67,0,*79
1497632508.01,54733,18.25,73632.8,2.57,1.75,1.83,0,*72
1497632509.24,54734,18.25,73630.3,2.53,1.71,1.71,0,*78
1497632510.46,54735,18.25,73622.0,2.57,1.59,1.71,0,*77
1497632511.68,54736,18.25,73606.0,2.53,1.59,1.59,0,*7A
1497632512.86,54737,18.25,73618.8,2.53,1.79,1.79,0,*7B
1497632514.03,54738,18.25,73610.3,2.53,1.83,1.83,0,*74
1497632515.21,54739,18.25,73612.5,2.57,1.83,1.83,0,*71
1497632516.44,54740,18.25,73616.5,2.57,1.85,1.85,0,*7F
1497632517.66,54741,18.25,73616.5,2.57,1.89,1.97,0,*71
1497632518.88,54742,18.25,73628.5,2.57,1.89,1.97,0,*72
1497632520.13,54743,18.25,73620.8,2.59,2.01,1.89,0,*71
1497632521.34,54744,18.25,73624.8,2.61,1.93,1.89,0,*75
1497632522.55,54745,18.25,73622.5,2.59,1.75,1.75,0,*74
1497632523.75,54746,18.25,73620.8,2.59,1.83,1.83,0,*77
1497632524.99,54747,18.25,73642.8,2.59,1.89,1.97,0,*79
1497632526.24,54748,18.25,73638.5,2.59,2.01,1.97,0,*75
1497632527.46,54749,18.25,73634.0,2.61,1.93,1.89,0,*78
1497632528.72,54750,18.25,73644.3,2.59,1.85,1.85,0,*70
1497632529.97,54751,18.25,73654.8,2.59,1.85,1.71,0,*7A
1497632531.2,54752,18.25,73658.3,2.61,1.33,1.33,0,*79
1497632532.43,54753,18.25,73646.0,2.65,1.43,1.47,0,*78
1497632533.68,54754,18.25,73654.3,2.63,1.29,1.33,0,*76
1497632534.94,54755,18.25,73656.3,2.63,1.21,1.21,0,*7C
1497632536.14,54756,18.25,73642.8,2.63,1.01,1.05,0,*7B
1497632537.38,54757,18.25,73650.5,2.65,1.21,1.21,0,*78
1497632538.64,54758,18.25,73646.3,2.63,1.21,1.21,0,*71
1497632539.88,54759,18.25,73638.0,2.63,0.83,0.91,0,*73
1497632541.14,54760,18.25,73636.5,2.63,1.33,1.29,0,*71
1497632542.37,54761,18.25,73640.3,2.61,1.33,1.29,0,*72
1497632543.59,54762,18.25,73646.0,2.63,1.41,1.43,0,*7A
1497632544.83,54763,18.25,73654.8,2.63,1.51,1.51,0,*79
1497632546.07,54764,18.25,73646.8,2.65,1.33,1.37,0,*7C
1497632547.32,54765,18.25,73640.3,2.63,1.51,1.55,0,*7B
1497632548.55,54766,18.25,73634.0,2.61,1.85,1.85,0,*7E
1497632549.77,54767,18.25,73632.8,2.61,1.93,2.05,0,*73
1497632551.0,54768,18.25,73634.5,2.61,2.01,2.01,0,*70
1497632552.23,54769,18.25,73632.3,2.65,2.05,2.09,0,*79
1497632553.47,54770,18.25,73634.3,2.63,2.01,2.01,0,*7B
1497632554.7,54771,18.25,73644.3,2.65,2.05,1.97,0,*74
1497632555.92,54772,18.25,73650.8,2.65,1.93,1.93,0,*7F
1497632557.12,54773,18.25,73656.3,2.65,1.89,1.79,0,*71
1497632558.34,54774,18.25,73656.0,2.63,1.43,1.41,0,*7D
1497632559.57,54775,18.25,73648.3,2.65,1.33,1.33,0,*78
1497632560.83,54776,18.25,73638.0,2.63,1.33,1.29,0,*76
1497632562.05,54777,18.25,73640.8,2.65,1.43,1.47,0,*7E
1497632563.27,54778,18.25,73640.0,2.65,1.47,1.47,0,*75
1497632564.51,54779,18.25,73642.0,2.65,1.37,1.37,0,*74
1497632565.74,54780,18.25,73638.8,2.65,1.43,1.37,0,*71
1497632566.97,54781,18.25,73636.3,2.65,1.25,1.33,0,*74
1497632568.23,54782,18.25,73636.3,2.63,1.21,1.21,0,*76
1497632569.48,54783,18.25,73618.8,2.67,0.79,0.91,0,*75
1497632570.73,54784,18.25,73628.3,2.67,1.25,1.25,0,*74
1497632571.93,54785,18.25,73620.5,2.67,1.01,1.01,0,*75
1497632573.19,54786,18.25,73624.0,2.67,1.09,1.13,0,*7D
1497632574.39,54787,18.25,73620.8,2.67,1.01,1.01,0,*77
1497632575.65,54788,18.25,73634.3,2.67,1.29,1.25,0,*74
1497632576.91,54789,18.25,73630.8,2.69,1.37,1.25,0,*74
1497632578.14,54790,18.25,73630.0,2.65,1.21,1.25,0,*77
1497632579.41,54791,18.25,73626.0,2.67,1.13,1.09,0,*7B
1497632580.64,54792,18.25,73620.5,2.67,0.67,0.55,0,*72
1497632581.88,54793,18.25,73622.8,2.67,0.67,0.63,0,*76
1497632583.07,54794,18.25,73626.0,2.65,0.97,0.95,0,*75
1497632584.29,54795,18.25,73636.3,2.65,0.83,0.75,0,*7F
1497632585.47,54796,18.25,73632.8,2.65,-0.37,-0.33,0,*71
1497632586.73,54797,18.25,73640.0,2.63,-0.89,-1.05,0,*47
1497632587.99,54798,18.25,73632.8,2.63,-1.87,-1.91,0,*7A
1497632589.23,54799,18.25,73632.3,2.59,-1.43,-1.29,0,*79
1497632590.41,54800,18.25,73636.8,2.57,-0.57,-0.57,0,*74
1497632591.59,54801,18.25,73638.0,2.57,-0.33,-0.41,0,*70
1497632592.8,54802,18.25,73634.5,2.53,0.13,0.13,0,*72
1497632594.02,54803,18.25,73624.3,2.51,0.09,0.17,0,*4E
1497632595.22,54804,18.25,73632.0,2.51,0.43,0.33,0,*71
1497632596.43,54805,18.25,73628.5,2.51,-0.29,-0.37,0,*78
1497632597.61,54806,18.25,73626.0,2.49,-0.49,-0.37,0,*74
1497632598.82,54807,18.25,73624.8,2.49,0.21,0.33,0,*7F
1497632600.07,54808,18.25,73626.3,2.51,0.47,0.47,0,*7A
1497632601.28,54809,18.25,73628.3,2.49,0.59,0.59,0,*72
1497632602.53,54810,18.25,73630.8,2.51,0.47,0.55,0,*70
1497632603.74,54811,18.25,73634.0,2.49,0.37,0.47,0,*7C
1497632604.96,54812,18.25,73638.3,2.49,0.21,0.21,0,*78
1497632606.15,54813,18.25,73644.8,2.49,-0.19,-0.19,0,*79
1497632607.33,54814,18.25,73658.3,2.49,-0.03,-0.07,0,*7A
1497632608.56,54815,18.25,73644.5,2.47,0.17,0.21,0,*74
1497632609.8,54816,18.25,73642.5,2.47,0.67,0.55,0,*73
1497632611.01,54817,18.25,73634.0,2.47,-0.19,-0.19,0,*73
1497632612.25,54818,18.25,73648.3,2.47,0.41,0.55,0,*79
1497632613.47,54819,18.25,73660.3,2.47,-0.07,0.17,0,*61
1497632614.65,54820,18.25,73642.5,2.45,0.01,0.29,0,*4F
1497632615.83,54821,18.25,73636.0,2.45,-0.69,-0.29,0,*70
1497632617.05,54822,18.25,73624.5,2.45,0.13,0.51,0,*71
1497632618.24,54823,18.25,73616.8,2.45,0.29,0.43,0,*7A
1497632619.44,54824,18.25,73608.0,2.45,1.01,1.13,0,*72
1497632620.66,54825,18.25,73608.5,2.45,1.51,1.47,0,*77
1497632621.88,54826,18.25,73610.5,2.45,1.59,1.59,0,*73
1497632623.13,54827,18.25,73624.5,2.47,1.51,1.37,0,*70
1497632624.34,54828,18.25,73606.0,2.47,1.05,1.01,0,*7B
1497632625.56,54829,18.25,73588.3,2.45,0.91,0.87,0,*7B
1497632626.8,54830,18.25,73610.8,2.47,0.95,0.95,0,*76
1497632628.05,54831,18.25,73612.8,2.47,1.25,1.25,0,*77
1497632629.31,54832,18.25,73624.0,2.47,1.29,1.17,0,*79
1497632630.57,54833,18.25,73630.8,2.47,1.29,1.25,0,*79
1497632631.8,54834,18.25,73640.3,2.47,1.05,0.91,0,*4E
1497632633.03,54835,18.25,73644.5,2.47,0.41,0.33,0,*76
1497632634.2,54836,18.25,73630.8,2.49,0.09,-0.03,0,*59
1497632635.45,54837,18.25,73630.8,2.47,0.21,0.21,0,*71
1497632636.69,54838,18.25,73624.3,2.47,0.29,0.21,0,*76
1497632637.92,54839,18.25,73636.3,2.47,0.67,0.63,0,*7B
1497632639.14,54840,18.25,73606.8,2.47,0.51,0.43,0,*72
1497632640.37,54841,18.25,73628.8,2.47,0.67,0.63,0,*74
1497632641.6,54842,18.25,73626.5,2.47,0.33,0.29,0,*78
1497632642.84,54843,18.25,73626.8,2.47,0.63,0.63,0,*72
1497632644.08,54844,18.25,73620.3,2.47,0.51,0.51,0,*75
1497632645.29,54845,18.25,73630.0,2.47,0.05,0.17,0,*47
1497632646.54,54846,18.25,73638.5,2.47,0.21,0.21,0,*77
1497632647.71,54847,18.25,73616.5,2.45,-0.07,-0.07,0,*74
1497632648.92,54848,18.25,73612.3,2.45,-0.23,-0.41,0,*7F
1497632650.14,54849,18.25,73600.3,2.43,0.09,0.13,0,*47
1497632651.36,54850,18.25,73612.0,2.41,0.59,0.63,0,*7F
1497632652.59,54851,18.25,73620.3,2.41,0.91,0.91,0,*77
1497632653.84,54852,18.25,73612.5,2.43,0.59,0.51,0,*7E
1497632655.08,54853,18.25,73612.5,2.43,0.25,0.29,0,*7B
1497632656.33,54854,18.25,73630.3,2.43,0.63,0.75,0,*77
1497632657.58,54855,18.25,73616.3,2.43,0.71,0.83,0,*7C
1497632658.82,54856,18.25,73626.3,2.43,0.25,0.25,0,*72
1497632660.04,54857,18.25,73626.3,2.41,0.29,0.29,0,*71
1497632661.25,54858,18.25,73632.5,2.41,0.17,0.13,0,*7A
1497632662.47,54859,18.25,73636.5,2.41,0.25,0.29,0,*73
1497632663.69,54860,18.25,73628.8,2.41,0.71,0.71,0,*75
1497632664.91,54861,18.25,73630.0,2.41,0.63,0.59,0,*7D
1497632666.14,54862,18.25,73624.0,2.41,0.63,0.47,0,*71
1497632667.37,54863,18.25,73622.0,2.39,0.13,0.25,0,*7C
1497632668.61,54864,18.25,73622.0,2.39,0.21,0.25,0,*7A
1497632669.77,54865,18.25,73620.3,2.37,-0.07,0.01,0,*5A
1497632671.02,54866,18.25,73620.8,2.39,0.47,0.55,0,*7F
1497632672.23,54867,18.25,73620.5,2.37,0.67,0.67,0,*73
1497632673.47,54868,18.25,73616.5,2.39,0.79,0.79,0,*72
1497632674.69,54869,18.25,73622.5,2.37,0.75,0.83,0,*74
1497632675.92,54870,18.25,73624.8,2.37,0.83,0.91,0,*76
1497632677.15,54871,18.25,73630.3,2.37,0.91,0.91,0,*74
1497632678.34,54872,18.25,73610.8,2.37,1.01,1.01,0,*77
1497632679.57,54873,18.25,73610.0,2.37,1.17,1.25,0,*77
1497632680.81,54874,18.25,73630.3,2.37,1.29,1.29,0,*71
1497632682.0,54875,18.25,73624.5,2.39,1.41,1.41,0,*7E
1497632683.21,54876,18.25,73610.3,2.37,1.41,1.37,0,*72
1497632684.47,54877,18.25,73618.3,2.39,1.29,1.29,0,*7C
1497632685.71,54878,18.25,73618.3,2.37,1.29,1.29,0,*7D
1497632686.95,54879,18.25,73614.5,2.39,1.51,1.43,0,*71
1497632688.22,54880,18.25,73618.3,2.39,1.33,1.33,0,*74
1497632689.44,54881,18.25,73636.3,2.39,1.41,1.29,0,*7B
1497632690.69,54882,18.25,73638.8,2.39,1.43,1.33,0,*71
1497632691.9,54883,18.25,73638.0,2.39,1.05,1.05,0,*77
1497632693.11,54884,18.25,73644.3,2.41,0.17,0.25,0,*7E
1497632694.29,54885,18.25,73630.8,2.41,-0.11,0.09,0,*6A
1497632695.54,54886,18.25,73628.0,2.39,0.79,0.87,0,*73
1497632696.78,54887,18.25,73614.0,2.37,1.13,1.13,0,*7D
1497632698.04,54888,18.25,73592.0,2.39,1.29,1.33,0,*77
1497632699.3,54889,18.25,73594.8,2.39,1.29,1.17,0,*70
1497632700.54,54890,18.25,73582.3,2.39,0.83,0.87,0,*71
1497632701.78,54891,18.25,73574.8,2.39,0.37,0.47,0,*73
1497632703.03,54892,18.25,73558.8,2.39,0.83,0.87,0,*73
1497632704.26,54893,18.25,73570.0,2.39,1.17,1.05,0,*75
1497632705.49,54894,18.25,73572.0,2.37,1.25,1.17,0,*7E
1497632706.72,54895,18.25,73582.3,2.37,1.47,1.47,0,*7E
1497632707.95,54896,18.25,73594.0,2.39,1.33,1.41,0,*76
1497632709.18,54897,18.25,73594.3,2.39,1.41,1.33,0,*77
1497632710.39,54898,18.19,73592.3,2.39,1.43,1.41,0,*7F
1497632711.59,54899,18.25,73592.8,2.39,1.41,1.41,0,*7C
1497632712.85,54900,18.25,73610.5,2.39,1.33,1.33,0,*7D
1497632714.11,54901,18.25,73600.5,2.39,1.21,1.21,0,*7C
1497632715.3,54902,18.25,73626.0,2.41,1.01,1.01,0,*70
1497632716.5,54903,18.25,73624.8,2.41,0.97,0.91,0,*77
1497632717.72,54904,18.25,73624.8,2.41,0.41,0.41,0,*76
1497632718.98,54905,18.25,73630.8,2.43,0.91,0.91,0,*75
1497632720.2,54906,18.25,73630.3,2.41,0.59,0.59,0,*74
1497632721.42,54907,18.25,73634.3,2.41,0.51,0.59,0,*7D
1497632722.64,54908,18.25,73624.8,2.41,0.41,0.51,0,*7B
1497632723.85,54909,18.25,73616.0,2.37,1.05,1.17,0,*79
1497632725.08,54910,18.25,73624.3,2.39,1.41,1.29,0,*72
1497632726.34,54911,18.25,73628.8,2.39,1.29,1.29,0,*7D
1497632727.56,54912,18.25,73626.0,2.39,1.41,1.43,0,*7C
1497632728.82,54913,18.25,73620.8,2.39,1.33,1.33,0,*7F
1497632730.06,54914,18.25,73630.3,2.41,1.37,1.37,0,*77
1497632731.3,54915,18.25,73622.8,2.41,1.13,1.25,0,*73
1497632732.54,54916,18.25,73616.8,2.41,1.25,1.33,0,*72
1497632733.78,54917,18.25,73626.5,2.41,1.13,1.21,0,*75
1497632735.02,54918,18.25,73618.0,2.41,1.21,1.13,0,*7A
1497632736.27,54919,18.25,73614.5,2.41,1.13,1.21,0,*7B
1497632737.5,54920,18.25,73616.0,2.41,1.25,1.33,0,*77
1497632738.77,54921,18.25,73620.3,2.43,1.37,1.33,0,*77
1497632740.0,54922,18.25,73630.8,2.41,1.43,1.37,0,*71
1497632741.25,54923,18.25,73628.0,2.43,1.59,1.47,0,*7E
1497632742.51,54924,18.25,73626.3,2.43,1.47,1.37,0,*71
1497632743.77,54925,18.25,73610.8,2.43,1.55,1.47,0,*74
1497632745.03,54926,18.25,73632.3,2.43,1.43,1.37,0,*77
1497632746.25,54927,18.25,73620.5,2.43,0.87,0.97,0,*74
1497632747.51,54928,18.25,73604.8,2.43,1.09,1.13,0,*71
1497632748.77,54929,18.25,73612.5,2.43,1.43,1.55,0,*7C
1497632750.02,54930,18.25,73610.3,2.43,1.59,1.71,0,*79
1497632751.24,54931,18.25,73624.0,2.45,1.59,1.63,0,*7D
1497632752.47,54932,18.25,73630.8,2.45,1.29,1.47,0,*7F
1497632753.7,54933,18.25,73624.0,2.47,1.05,1.29,0,*7A
1497632754.91,54934,18.25,73608.3,2.45,1.05,1.17,0,*72
1497632756.16,54935,18.25,73618.5,2.47,1.25,1.17,0,*73
1497632757.42,54936,18.25,73630.3,2.47,1.13,1.13,0,*71
1497632758.67,54937,18.25,73636.0,2.47,0.91,0.87,0,*77
1497632759.87,54938,18.25,73620.0,2.47,0.43,0.67,0,*79
1497632761.11,54939,18.25,73616.8,2.47,0.29,0.79,0,*7B
1497632762.33,54940,18.25,73624.5,2.47,0.87,1.01,0,*4F
1497632763.56,54941,18.25,73636.0,2.47,1.29,1.41,0,*7F
1497632764.79,54942,18.25,73644.3,2.47,1.29,1.41,0,*7C
1497632766.02,54943,18.25,73636.8,2.47,0.95,0.95,0,*73
1497632767.23,54944,18.25,73630.3,2.47,1.05,1.01,0,*70
1497632768.44,54945,18.25,73642.5,2.47,1.05,0.95,0,*4D
1497632769.69,54946,18.25,73632.8,2.47,0.75,0.75,0,*76
1497632770.86,54947,18.25,73624.5,2.49,1.05,1.05,0,*79
1497632772.08,54948,18.25,73632.0,2.49,0.59,0.59,0,*76
1497632773.26,54949,18.25,73634.3,2.49,-0.29,-0.15,0,*78
1497632774.46,54950,18.25,73628.5,2.45,-0.23,0.01,0,*6E
1497632775.64,54951,18.25,73620.8,2.45,-0.29,-0.11,0,*79
1497632776.83,54952,18.25,73622.5,2.45,-0.53,-0.33,0,*77
1497632778.0,54953,18.25,73624.3,2.45,-0.11,0.01,0,*6C
1497632779.25,54954,18.25,73628.5,2.43,0.47,0.71,0,*74
1497632780.47,54955,18.25,73630.3,2.41,0.51,0.63,0,*73
1497632781.69,54956,18.25,73626.8,2.41,0.83,0.83,0,*71
1497632782.87,54957,18.25,73630.8,2.41,0.97,0.97,0,*70
1497632784.13,54958,18.25,73622.8,2.43,0.91,0.91,0,*7D
1497632785.3,54959,18.25,73624.8,2.41,0.97,0.97,0,*7E
1497632786.57,54960,18.25,73624.0,2.43,1.21,1.33,0,*75
1497632787.83,54961,18.25,73630.3,2.43,1.25,1.25,0,*77
1497632789.09,54962,18.25,73616.3,2.43,0.91,0.91,0,*74
1497632790.34,54963,18.25,73618.0,2.43,0.71,0.75,0,*71
1497632791.58,54964,18.25,73618.5,2.43,1.01,1.09,0,*7A
1497632792.78,54965,18.25,73628.8,2.45,1.37,1.41,0,*74
1497632793.98,54966,18.25,73628.3,2.45,1.41,1.47,0,*70
1497632795.2,54967,18.25,73636.8,2.45,1.47,1.47,0,*77
1497632796.43,54968,18.25,73628.3,2.45,1.29,1.25,0,*74
1497632797.65,54969,18.25,73628.5,2.45,0.51,0.63,0,*78
1497632798.86,54970,18.25,73626.5,2.45,0.75,0.79,0,*7D
1497632800.08,54971,18.25,73634.3,2.45,0.63,0.63,0,*70
1497632801.24,54972,18.25,73626.5,2.45,0.05,0.01,0,*77
1497632802.43,54973,18.25,73634.3,2.41,-0.03,-0.11,0,*45
1497632803.64,54974,18.25,73634.8,2.41,0.13,0.13,0,*71
1497632804.86,54975,18.25,73628.0,2.41,0.47,0.51,0,*77
1497632806.08,54976,18.25,73628.5,2.41,0.75,0.75,0,*73
1497632807.29,54977,18.25,73632.5,2.43,0.97,1.01,0,*4E
1497632808.5,54978,18.25,73642.5,2.41,1.01,1.21,0,*7F
1497632809.74,54979,18.25,73632.8,2.41,1.21,1.21,0,*7C
1497632811.01,54980,18.25,73634.0,2.43,1.37,1.37,0,*78
1497632812.28,54981,18.25,73642.5,2.43,1.33,1.37,0,*7D
1497632813.52,54982,18.25,73642.5,2.41,1.37,1.43,0,*7B
1497632814.77,54983,18.25,73640.5,2.43,1.59,1.67,0,*76
1497632816.03,54984,18.25,73640.0,2.43,1.37,1.47,0,*7B
1497632817.28,54985,18.25,73644.0,2.43,1.43,1.47,0,*79
1497632818.53,54986,18.25,73644.0,2.43,1.59,1.67,0,*73
1497632819.74,54987,18.25,73648.3,2.41,1.75,1.71,0,*79
1497632820.99,54988,18.25,73646.5,2.43,1.71,1.71,0,*70
1497632822.21,54989,18.19,73642.0,2.45,1.59,1.71,0,*7D
1497632823.44,54990,18.25,73642.5,2.45,1.71,1.71,0,*7F
1497632824.66,54991,18.25,73650.5,2.45,1.71,1.71,0,*7E
1497632825.89,54992,18.25,73636.5,2.45,1.63,1.63,0,*7D
1497632827.11,54993,18.25,73648.5,2.45,1.51,1.63,0,*7D
1497632828.34,54994,18.19,73640.0,2.45,1.47,1.51,0,*7C
1497632829.54,54995,18.25,73644.3,2.45,1.17,1.05,0,*79
1497632830.78,54996,18.25,73644.5,2.45,1.37,1.17,0,*7B
1497632832.0,54997,18.25,73654.8,2.45,0.95,0.91,0,*7C
1497632833.22,54998,18.25,73654.5,2.45,0.75,0.75,0,*77
1497632834.44,54999,18.25,73654.3,2.45,0.75,0.55,0,*74
1497632835.65,55000,18.25,73662.0,2.45,0.41,0.29,0,*70
1497632836.84,55001,18.25,73666.8,2.45,0.13,0.05,0,*48
1497632838.03,55002,18.25,73670.8,2.41,-0.73,-0.77,0,*7C
1497632839.2,55003,18.25,73618.5,2.41,0.01,0.09,0,*71
1497632840.44,55004,18.25,73620.3,2.39,0.47,0.55,0,*72
1497632841.68,55005,18.25,73620.5,2.39,0.71,0.79,0,*78
1497632842.85,55006,18.25,73618.8,2.41,0.97,0.97,0,*7C
1497632844.1,55007,18.19,73624.0,2.39,0.79,0.79,0,*72
1497632845.34,55008,18.25,73624.5,2.39,0.79,0.87,0,*7C
1497632846.58,55009,18.25,73614.5,2.37,1.17,1.25,0,*73
1497632847.81,55010,18.25,73618.0,2.39,1.05,1.09,0,*78
1497632849.04,55011,18.25,73620.3,2.37,1.25,1.29,0,*77
1497632850.3,55012,18.25,73616.5,2.39,1.55,1.55,0,*76
1497632851.55,55013,18.19,73620.0,2.39,1.63,1.63,0,*77
1497632852.77,55014,18.25,73638.0,2.37,1.51,1.47,0,*79
1497632854.0,55015,18.25,73638.0,2.39,0.97,0.83,0,*74
1497632855.19,55016,18.25,73620.0,2.37,0.95,1.01,0,*40
1497632856.46,55017,18.25,73616.0,2.39,1.33,1.33,0,*73
1497632857.67,55018,18.25,73622.3,2.39,1.43,1.41,0,*7E
1497632858.94,55019,18.19,73628.5,2.39,1.33,1.33,0,*7D
1497632860.13,55020,18.25,73626.0,2.39,0.97,0.97,0,*77
1497632861.36,55021,18.25,73630.3,2.41,0.91,0.91,0,*79
1497632862.6,55022,18.25,73608.8,2.39,0.95,0.95,0,*75
1497632863.86,55023,18.25,73604.8,2.39,1.17,1.17,0,*74
1497632865.12,55024,18.25,73594.3,2.39,1.33,1.29,0,*78
1497632866.36,55025,18.25,73590.5,2.39,1.51,1.43,0,*71
1497632867.62,55026,18.25,73600.0,2.39,1.29,1.33,0,*7A
1497632868.88,55027,18.25,73604.0,2.39,1.29,1.29,0,*70
1497632870.08,55028,18.19,73604.5,2.39,1.41,1.41,0,*7F
1497632871.33,55029,18.25,73608.3,2.39,1.51,1.55,0,*7A
1497632872.58,55030,18.19,73628.8,2.39,1.63,1.63,0,*76
1497632873.82,55031,18.25,73616.3,2.39,1.51,1.51,0,*77
1497632875.08,55032,18.25,73602.5,2.39,1.55,1.63,0,*71
1497632876.31,55033,18.25,73600.5,2.37,1.59,1.51,0,*73
1497632877.56,55034,18.25,73618.3,2.39,1.55,1.63,0,*77
1497632878.81,55035,18.25,73630.8,2.39,1.71,1.63,0,*70
1497632880.04,55036,18.25,73640.5,2.41,1.47,1.47,0,*7F
1497632881.29,55037,18.25,73612.8,2.43,1.55,1.47,0,*7F
1497632882.55,55038,18.25,73614.8,2.43,1.43,1.37,0,*70
1497632883.78,55039,18.25,73620.5,2.41,1.43,1.47,0,*74
1497632885.01,55040,18.25,73606.8,2.41,1.33,1.43,0,*79
1497632886.26,55041,18.19,73620.0,2.43,1.67,1.67,0,*7D
1497632887.49,55042,18.25,73624.8,2.41,1.67,1.71,0,*7B
1497632888.7,55043,18.25,73634.3,2.43,1.75,1.75,0,*7F
1497632889.94,55044,18.25,73618.3,2.43,1.85,1.83,0,*7E
1497632891.15,55045,18.25,73620.3,2.43,1.75,1.83,0,*70
1497632892.36,55046,18.25,73622.5,2.43,1.83,1.83,0,*7A
1497632893.57,55047,18.19,73614.3,2.43,1.83,1.83,0,*7B
1497632894.78,55048,18.25,73612.0,2.43,1.83,1.83,0,*74
1497632895.98,55049,18.19,73616.0,2.45,1.79,1.85,0,*70
1497632897.19,55050,18.25,73614.0,2.47,1.79,1.75,0,*75
1497632898.39,55051,18.25,73608.8,2.47,1.75,1.75,0,*78
1497632899.57,55052,18.25,73600.8,2.45,1.75,1.75,0,*79
1497632900.8,55053,18.19,73614.8,2.47,1.75,1.71,0,*7E
1497632901.98,55054,18.25,73620.8,2.45,1.79,1.79,0,*7F
1497632903.18,55055,18.25,73622.8,2.45,1.75,1.63,0,*79
1497632904.44,55056,18.25,73646.3,2.47,1.29,1.13,0,*76
1497632905.67,55057,18.25,73624.8,2.47,0.33,0.29,0,*75
1497632906.88,55058,18.25,73624.5,2.45,0.13,0.17,0,*77
1497632908.06,55059,18.25,73636.3,2.45,-0.53,-0.57,0,*76
1497632909.25,55060,18.25,73634.5,2.45,-0.19,-0.19,0,*78
1497632910.46,55061,18.25,73636.5,2.43,-0.11,-0.03,0,*4C
1497632911.64,55062,18.25,73640.3,2.41,-0.45,-0.45,0,*7E
1497632912.83,55063,18.25,73638.5,2.41,-0.37,-0.37,0,*7F
1497632914.04,55064,18.19,73632.8,2.39,-0.81,-0.81,0,*77
1497632915.26,55065,18.25,73632.8,2.39,-1.17,-1.25,0,*77
1497632916.46,55066,18.19,73626.8,2.37,-1.29,-1.21,0,*73
1497632917.65,55067,18.25,73628.5,2.35,-1.29,-1.29,0,*78
1497632918.89,55068,18.25,73626.5,2.33,-1.35,-1.33,0,*77
1497632920.15,55069,18.19,73622.5,2.29,-1.13,-1.09,0,*70
1497632921.38,55070,18.25,73620.0,2.29,-1.43,-1.33,0,*74
1497632922.6,55071,18.19,73610.3,2.27,-1.47,-1.25,0,*78
1497632923.78,55072,18.25,73622.0,2.27,-0.77,-0.61,0,*78
1497632925.01,55073,18.19,73628.0,2.25,-0.85,-0.61,0,*76
1497632926.19,55074,18.25,73630.5,2.23,-0.65,-0.45,0,*7F
1497632927.4,55075,18.25,73622.8,2.23,0.29,0.51,0,*73
1497632928.61,55076,18.25,73616.0,2.23,1.05,1.25,0,*7D
1497632929.83,55077,18.25,73614.3,2.25,1.43,1.41,0,*7A
1497632931.05,55078,18.25,73598.3,2.25,1.41,1.51,0,*76
1497632932.27,55079,18.25,73576.3,2.25,1.41,1.43,0,*74